CLW91D VECC-OKKK

Flight info

Callsign CLW91D
Flight time N/A
Altitude 32000
Route JJS2F JJS A791 BPL/N0481F340 A791 PRA A325 KE B210 NH P757 PG/N0473F360 G665 SYZ A788 KHG G669 SESRU
Aircraft B738/M-SDE2E3FGHIRWXY/LB1

Departure

Time N/A
Airport Netaji Subhash Chandra Bose International Airport (VECC)

Arrival

Time 2026-05-05 14:55
Airport Kuwait International Airport (OKKK)
Time Latitude Longitude Altitude Speed Heading
2026-05-05 10:24 23.23106 78.52160 31868 ft 413 kts 273°
2026-05-05 10:24 23.23411 78.45840 31868 ft 413 kts 273°
2026-05-05 10:25 23.23705 78.39608 31869 ft 413 kts 273°
2026-05-05 10:25 23.23996 78.33366 31876 ft 413 kts 273°
2026-05-05 10:26 23.24285 78.27139 31879 ft 412 kts 273°
2026-05-05 10:26 23.24570 78.20952 31887 ft 412 kts 273°
2026-05-05 10:27 23.24853 78.14728 31885 ft 412 kts 273°
2026-05-05 10:27 23.25135 78.08510 31892 ft 411 kts 273°
2026-05-05 10:28 23.25413 78.02300 31893 ft 411 kts 273°
2026-05-05 10:28 23.25689 77.96079 31885 ft 412 kts 273°
2026-05-05 10:29 23.25963 77.89862 31890 ft 411 kts 273°
2026-05-05 10:29 23.26232 77.83681 31893 ft 412 kts 273°
2026-05-05 10:30 23.26501 77.77458 31892 ft 412 kts 273°
2026-05-05 10:30 23.26768 77.71232 31886 ft 412 kts 273°
2026-05-05 10:31 23.27033 77.64993 31881 ft 413 kts 273°
2026-05-05 10:31 23.27295 77.58758 31873 ft 413 kts 273°
2026-05-05 10:32 23.27555 77.52520 31871 ft 413 kts 273°
2026-05-05 10:32 23.27812 77.46272 31859 ft 413 kts 273°
2026-05-05 10:33 23.28068 77.40023 31859 ft 413 kts 273°
2026-05-05 10:33 23.28462 77.33836 31851 ft 413 kts 279°
2026-05-05 10:34 23.30013 77.27830 31861 ft 413 kts 287°
2026-05-05 10:34 23.31836 77.21904 31867 ft 413 kts 287°
2026-05-05 10:35 23.33643 77.15969 31868 ft 413 kts 287°
2026-05-05 10:35 23.35433 77.10023 31877 ft 413 kts 287°
2026-05-05 10:36 23.37212 77.04087 31881 ft 412 kts 287°
2026-05-05 10:36 23.38984 76.98158 31899 ft 412 kts 287°
2026-05-05 10:37 23.40743 76.92266 31899 ft 411 kts 287°
2026-05-05 10:37 23.42509 76.86343 31897 ft 411 kts 287°
2026-05-05 10:38 23.44272 76.80419 31897 ft 411 kts 287°
2026-05-05 10:38 23.46030 76.74505 31894 ft 410 kts 287°
2026-05-05 10:39 23.47785 76.68589 31897 ft 410 kts 287°
2026-05-05 10:39 23.49537 76.62675 31894 ft 410 kts 287°
2026-05-05 10:40 23.51286 76.56765 31892 ft 409 kts 287°
2026-05-05 10:40 23.53020 76.50894 31890 ft 410 kts 287°
2026-05-05 10:41 23.54763 76.44982 31891 ft 410 kts 287°
2026-05-05 10:41 23.56506 76.39065 31892 ft 410 kts 287°
2026-05-05 10:42 23.59115 76.30186 31890 ft 410 kts 287°
2026-05-05 10:43 23.60855 76.24256 31887 ft 410 kts 287°
2026-05-05 10:43 23.62591 76.18326 31886 ft 411 kts 287°
2026-05-05 10:44 23.64317 76.12424 31885 ft 410 kts 287°
2026-05-05 10:44 23.66049 76.06491 31891 ft 410 kts 287°
2026-05-05 10:45 23.67763 76.00612 31881 ft 411 kts 287°
2026-05-05 10:45 23.69432 75.94861 31885 ft 411 kts 287°
2026-05-05 10:46 23.71149 75.88917 31882 ft 411 kts 287°
2026-05-05 10:46 23.72842 75.83049 31881 ft 411 kts 287°
2026-05-05 10:47 23.74556 75.77100 31880 ft 411 kts 287°
2026-05-05 10:47 23.76257 75.71188 31879 ft 411 kts 287°
2026-05-05 10:48 23.77970 75.65226 31877 ft 411 kts 287°
2026-05-05 10:48 23.79677 75.59272 31875 ft 411 kts 287°
2026-05-05 10:49 23.81383 75.53315 31878 ft 410 kts 287°
2026-05-05 10:49 23.83084 75.47366 31877 ft 410 kts 287°
2026-05-05 10:50 23.84771 75.41455 31874 ft 410 kts 287°
2026-05-05 10:50 23.86467 75.35504 31873 ft 410 kts 287°
2026-05-05 10:51 23.88159 75.29556 31877 ft 409 kts 287°
2026-05-05 10:51 23.89847 75.23611 31871 ft 409 kts 288°
2026-05-05 10:52 23.91532 75.17669 31876 ft 409 kts 288°
2026-05-05 10:52 23.93216 75.11723 31876 ft 410 kts 288°
2026-05-05 10:53 23.94898 75.05772 31875 ft 409 kts 288°
2026-05-05 10:53 23.96578 74.99820 31871 ft 409 kts 288°
2026-05-05 10:54 23.98242 74.93912 31869 ft 409 kts 288°
2026-05-05 10:54 23.99912 74.87976 31870 ft 408 kts 288°
2026-05-05 10:55 24.01577 74.82046 31873 ft 407 kts 288°
2026-05-05 10:55 24.02960 74.77114 31870 ft 407 kts 288°
2026-05-05 10:56 24.04659 74.71215 31872 ft 406 kts 289°
2026-05-05 10:56 24.06778 74.64410 31871 ft 406 kts 289°
2026-05-05 10:57 24.08310 74.59501 31866 ft 406 kts 289°
2026-05-05 10:57 24.10123 74.53636 31869 ft 407 kts 289°
2026-05-05 10:58 24.11915 74.47808 31860 ft 407 kts 289°
2026-05-05 10:58 24.13717 74.41934 31864 ft 406 kts 289°
2026-05-05 10:59 24.15514 74.36069 31860 ft 406 kts 289°
2026-05-05 10:59 24.17311 74.30193 31854 ft 406 kts 289°
2026-05-05 11:00 24.19104 74.24322 31855 ft 407 kts 289°
2026-05-05 11:00 24.20899 74.18437 31858 ft 407 kts 289°
2026-05-05 11:01 24.22689 74.12596 31851 ft 407 kts 290°
2026-05-05 11:01 24.24527 74.06723 31851 ft 408 kts 290°
2026-05-05 11:02 24.26369 74.00841 31854 ft 408 kts 290°
2026-05-05 11:02 24.28207 73.94952 31857 ft 408 kts 290°
2026-05-05 11:03 24.30043 73.89050 31863 ft 408 kts 290°
2026-05-05 11:03 24.31873 73.83155 31855 ft 409 kts 290°
2026-05-05 11:04 24.33701 73.77257 31856 ft 408 kts 290°
2026-05-05 11:04 24.35526 73.71364 31855 ft 408 kts 290°
2026-05-05 11:05 24.37334 73.65512 31856 ft 408 kts 290°
2026-05-05 11:05 24.39151 73.59625 31866 ft 407 kts 290°
2026-05-05 11:06 24.40965 73.53738 31870 ft 407 kts 290°
2026-05-05 11:06 24.42779 73.47840 31858 ft 408 kts 290°
2026-05-05 11:07 24.44591 73.41943 31852 ft 407 kts 290°
2026-05-05 11:07 24.46387 73.36083 31849 ft 407 kts 290°
2026-05-05 11:08 24.48191 73.30194 31848 ft 407 kts 290°
2026-05-05 11:08 24.49993 73.24300 31842 ft 407 kts 290°
2026-05-05 11:09 24.51794 73.18398 31842 ft 406 kts 290°
2026-05-05 11:09 24.53588 73.12512 31834 ft 406 kts 290°
2026-05-05 11:10 24.55377 73.06633 31826 ft 405 kts 290°
2026-05-05 11:10 24.57150 73.00800 31824 ft 405 kts 290°
2026-05-05 11:11 24.58932 72.94924 31828 ft 405 kts 290°
2026-05-05 11:11 24.60715 72.89040 31823 ft 405 kts 290°
2026-05-05 11:12 24.62493 72.83159 31823 ft 406 kts 290°
2026-05-05 11:12 24.64274 72.77262 31806 ft 406 kts 290°
2026-05-05 11:13 24.66053 72.71360 31800 ft 406 kts 290°
2026-05-05 11:13 24.67817 72.65498 31799 ft 406 kts 290°
2026-05-05 11:14 24.69587 72.59606 31800 ft 405 kts 290°
2026-05-05 11:14 24.71352 72.53724 31796 ft 404 kts 290°
2026-05-05 11:15 24.73114 72.47842 31791 ft 404 kts 290°
2026-05-05 11:15 24.74870 72.41973 31785 ft 404 kts 290°
2026-05-05 11:16 24.76621 72.36107 31789 ft 403 kts 290°
2026-05-05 11:16 24.78371 72.30240 31777 ft 403 kts 290°
2026-05-05 11:17 24.80106 72.24410 31777 ft 404 kts 290°
2026-05-05 11:17 24.81851 72.18539 31772 ft 404 kts 290°
2026-05-05 11:18 24.83594 72.12664 31772 ft 403 kts 290°
2026-05-05 11:18 24.85336 72.06785 31764 ft 403 kts 290°
2026-05-05 11:19 24.87075 72.00904 31762 ft 403 kts 290°
2026-05-05 11:19 24.88811 71.95024 31758 ft 403 kts 290°
2026-05-05 11:20 24.90542 71.89155 31755 ft 403 kts 290°
2026-05-05 11:20 24.92259 71.83321 31754 ft 403 kts 290°
2026-05-05 11:21 24.93985 71.77448 31751 ft 402 kts 290°
2026-05-05 11:21 24.95709 71.71573 31746 ft 402 kts 290°
2026-05-05 11:22 24.97271 71.66240 31746 ft 402 kts 290°
2026-05-05 11:22 24.98985 71.60380 31750 ft 402 kts 290°
2026-05-05 11:23 25.00699 71.54511 31750 ft 402 kts 290°
2026-05-05 11:23 25.02408 71.48648 31748 ft 402 kts 290°
2026-05-05 11:24 25.04120 71.42765 31747 ft 402 kts 290°
2026-05-05 11:24 25.05827 71.36892 31748 ft 402 kts 290°
2026-05-05 11:25 25.07521 71.31055 31745 ft 402 kts 290°
2026-05-05 11:25 25.09222 71.25181 31746 ft 402 kts 290°
2026-05-05 11:26 25.10920 71.19307 31747 ft 402 kts 290°
2026-05-05 11:26 25.12619 71.13424 31746 ft 402 kts 290°
2026-05-05 11:27 25.14314 71.07544 31746 ft 401 kts 290°
2026-05-05 11:27 25.16004 71.01669 31749 ft 401 kts 290°
2026-05-05 11:28 25.17690 70.95799 31746 ft 401 kts 290°
2026-05-05 11:28 25.19363 70.89968 31743 ft 401 kts 290°
2026-05-05 11:29 25.21043 70.84100 31745 ft 400 kts 290°
2026-05-05 11:29 25.22726 70.78230 31745 ft 400 kts 290°
2026-05-05 11:30 25.24439 70.72385 31741 ft 400 kts 290°
2026-05-05 11:30 25.26158 70.66540 31743 ft 400 kts 290°
2026-05-05 11:31 25.27871 70.60691 31741 ft 400 kts 290°
2026-05-05 11:31 25.29580 70.54842 31738 ft 400 kts 290°
2026-05-05 11:32 25.31274 70.49027 31742 ft 400 kts 290°
2026-05-05 11:32 25.32977 70.43176 31739 ft 400 kts 290°
2026-05-05 11:33 25.34680 70.37313 31738 ft 400 kts 290°
2026-05-05 11:33 25.36364 70.31504 31740 ft 399 kts 290°
2026-05-05 11:34 25.38057 70.25656 31740 ft 399 kts 290°
2026-05-05 11:34 25.39746 70.19813 31745 ft 398 kts 290°
2026-05-05 11:35 25.41431 70.13973 31737 ft 398 kts 290°
2026-05-05 11:35 25.43112 70.08140 31743 ft 398 kts 290°
2026-05-05 11:36 25.44789 70.02307 31740 ft 397 kts 290°
2026-05-05 11:36 25.46461 69.96483 31738 ft 397 kts 290°
2026-05-05 11:37 25.48130 69.90662 31743 ft 396 kts 290°
2026-05-05 11:37 25.49783 69.84888 31741 ft 396 kts 290°
2026-05-05 11:38 25.51444 69.79080 31742 ft 396 kts 290°
2026-05-05 11:38 25.53739 69.73580 31750 ft 393 kts 300°
2026-05-05 11:39 25.56455 69.68322 31744 ft 393 kts 300°
2026-05-05 11:39 25.59166 69.63042 31745 ft 394 kts 300°
2026-05-05 11:40 25.61861 69.57758 31747 ft 394 kts 300°
2026-05-05 11:40 25.64551 69.52467 31744 ft 394 kts 300°
2026-05-05 11:41 25.67223 69.47203 31745 ft 394 kts 300°
2026-05-05 11:41 25.69912 69.41898 31746 ft 394 kts 300°
2026-05-05 11:42 25.72596 69.36596 31745 ft 394 kts 300°
2026-05-05 11:42 25.75280 69.31289 31744 ft 394 kts 300°
2026-05-05 11:43 25.77961 69.25982 31744 ft 394 kts 300°
2026-05-05 11:43 25.80637 69.20678 31745 ft 394 kts 300°
2026-05-05 11:44 25.83312 69.15372 31747 ft 394 kts 300°
2026-05-05 11:44 25.85986 69.10058 31747 ft 394 kts 300°
2026-05-05 11:45 25.88655 69.04752 31745 ft 393 kts 300°
2026-05-05 11:45 25.90868 69.00344 31746 ft 393 kts 300°
2026-05-05 11:46 25.93962 68.94177 31746 ft 393 kts 300°
2026-05-05 11:46 25.96187 68.89737 31749 ft 392 kts 300°
2026-05-05 11:47 25.98820 68.84477 31749 ft 392 kts 300°
2026-05-05 11:47 26.01464 68.79188 31747 ft 391 kts 300°
2026-05-05 11:48 26.05421 68.71260 31752 ft 390 kts 300°
2026-05-05 11:48 26.08054 68.65980 31753 ft 390 kts 300°
2026-05-05 11:49 26.10680 68.60704 31755 ft 389 kts 300°
2026-05-05 11:49 26.13300 68.55435 31754 ft 389 kts 300°
2026-05-05 11:50 26.15920 68.50160 31757 ft 388 kts 300°
2026-05-05 11:50 26.18514 68.44931 31752 ft 388 kts 300°
2026-05-05 11:51 26.21050 68.39625 31750 ft 389 kts 295°
2026-05-05 11:51 26.22612 68.33841 31760 ft 392 kts 284°
2026-05-05 11:52 26.23696 68.27887 31755 ft 392 kts 284°
2026-05-05 11:52 26.24784 68.21928 31754 ft 393 kts 284°
2026-05-05 11:53 26.25884 68.15959 31763 ft 393 kts 284°
2026-05-05 11:53 26.26987 68.09995 31764 ft 393 kts 284°
2026-05-05 11:54 26.28083 68.04062 31765 ft 393 kts 284°
2026-05-05 11:54 26.29184 67.98088 31761 ft 394 kts 284°
2026-05-05 11:55 26.30283 67.92112 31764 ft 394 kts 284°
2026-05-05 11:55 26.31380 67.86130 31776 ft 393 kts 284°
2026-05-05 11:56 26.32473 67.80157 31770 ft 393 kts 284°
2026-05-05 11:56 26.33565 67.74169 31773 ft 393 kts 284°
2026-05-05 11:57 26.34648 67.68223 31773 ft 393 kts 284°
2026-05-05 11:57 26.35734 67.62242 31772 ft 393 kts 284°
2026-05-05 11:58 26.36819 67.56255 31773 ft 393 kts 284°
2026-05-05 11:58 26.37900 67.50269 31778 ft 393 kts 284°
2026-05-05 11:59 26.38972 67.44326 31770 ft 393 kts 284°
2026-05-05 11:59 26.40045 67.38357 31791 ft 393 kts 284°
2026-05-05 12:00 26.41121 67.32360 31785 ft 394 kts 284°
2026-05-05 12:00 26.42191 67.26373 31784 ft 393 kts 284°
2026-05-05 12:01 26.43250 67.20439 31787 ft 392 kts 284°
2026-05-05 12:01 26.44314 67.14462 31798 ft 392 kts 284°
2026-05-05 12:02 26.45376 67.08486 31808 ft 392 kts 284°
2026-05-05 12:02 26.46428 67.02541 31823 ft 388 kts 284°
2026-05-05 12:03 26.47482 66.96611 31814 ft 390 kts 284°
2026-05-05 12:03 26.48549 66.90669 31818 ft 391 kts 284°
2026-05-05 12:04 26.49616 66.84713 31816 ft 392 kts 284°
2026-05-05 12:04 26.50678 66.78769 31811 ft 393 kts 284°
2026-05-05 12:05 26.51745 66.72778 31821 ft 393 kts 284°
2026-05-05 12:05 26.52812 66.66770 31808 ft 394 kts 284°
2026-05-05 12:06 26.53877 66.60763 31812 ft 394 kts 284°
2026-05-05 12:06 26.54931 66.54792 31802 ft 394 kts 284°
2026-05-05 12:07 26.55990 66.48783 31808 ft 394 kts 284°
2026-05-05 12:07 26.57046 66.42772 31800 ft 394 kts 284°
2026-05-05 12:08 26.58096 66.36778 31799 ft 393 kts 284°
2026-05-05 12:08 26.59142 66.30799 31799 ft 392 kts 284°
2026-05-05 12:09 26.60183 66.24829 31809 ft 390 kts 283°
2026-05-05 12:09 26.61219 66.18873 31799 ft 391 kts 284°
2026-05-05 12:10 26.62255 66.12900 31793 ft 392 kts 284°
2026-05-05 12:10 26.63285 66.06956 31808 ft 392 kts 283°
2026-05-05 12:11 26.64319 66.00963 31805 ft 393 kts 284°
2026-05-05 12:11 26.65355 65.94952 31794 ft 393 kts 284°
2026-05-05 12:12 26.66386 65.88942 31803 ft 394 kts 283°
2026-05-05 12:12 26.67417 65.82922 31796 ft 395 kts 283°
2026-05-05 12:13 26.68449 65.76879 31790 ft 395 kts 283°
2026-05-05 12:13 26.69473 65.70870 31798 ft 396 kts 283°
2026-05-05 12:14 26.70501 65.64815 31795 ft 395 kts 283°
2026-05-05 12:14 26.71524 65.58777 31789 ft 395 kts 283°
2026-05-05 12:15 26.72541 65.52756 31793 ft 393 kts 283°
2026-05-05 12:15 26.73553 65.46755 31803 ft 392 kts 283°
2026-05-05 12:16 26.74556 65.40788 31815 ft 393 kts 283°
2026-05-05 12:16 26.75564 65.34778 31808 ft 393 kts 283°
2026-05-05 12:17 26.76568 65.28769 31818 ft 392 kts 283°
2026-05-05 12:17 26.77569 65.22767 31826 ft 393 kts 283°
2026-05-05 12:18 26.78573 65.16738 31825 ft 394 kts 283°
2026-05-05 12:18 26.79572 65.10711 31836 ft 394 kts 283°
2026-05-05 12:19 26.80569 65.04675 31830 ft 394 kts 283°
2026-05-05 12:19 26.81567 64.98633 31832 ft 395 kts 283°
2026-05-05 12:20 26.82562 64.92581 31842 ft 395 kts 282°
2026-05-05 12:20 26.83548 64.86565 31843 ft 395 kts 282°
2026-05-05 12:21 26.84538 64.80511 31848 ft 395 kts 282°
2026-05-05 12:21 26.85523 64.74473 31855 ft 394 kts 282°
2026-05-05 12:22 26.86505 64.68436 31856 ft 393 kts 282°
2026-05-05 12:22 26.87482 64.62411 31856 ft 393 kts 282°
2026-05-05 12:23 26.88457 64.56388 31860 ft 393 kts 282°
2026-05-05 12:23 26.89428 64.50366 31858 ft 393 kts 282°
2026-05-05 12:24 26.90397 64.44340 31865 ft 393 kts 282°
2026-05-05 12:24 26.91359 64.38344 31858 ft 394 kts 282°
2026-05-05 12:25 26.92325 64.32306 31858 ft 394 kts 282°
2026-05-05 12:25 26.93290 64.26253 31856 ft 394 kts 282°
2026-05-05 12:26 26.94253 64.20198 31850 ft 394 kts 282°
2026-05-05 12:26 26.95189 64.14136 31847 ft 395 kts 279°
2026-05-05 12:27 26.95369 64.07964 31843 ft 397 kts 273°
2026-05-05 12:27 26.95383 64.01809 31842 ft 397 kts 273°
2026-05-05 12:28 26.95410 63.95619 31839 ft 397 kts 273°
2026-05-05 12:28 26.95444 63.89438 31838 ft 396 kts 273°
2026-05-05 12:29 26.95479 63.83252 31837 ft 396 kts 273°
2026-05-05 12:29 26.95511 63.77059 31834 ft 396 kts 273°
2026-05-05 12:30 26.95541 63.70878 31831 ft 397 kts 273°
2026-05-05 12:30 26.95567 63.64694 31827 ft 397 kts 273°
2026-05-05 12:31 26.95591 63.58546 31827 ft 397 kts 273°
2026-05-05 12:31 26.95612 63.52350 31826 ft 397 kts 273°
2026-05-05 12:32 26.95631 63.46145 31829 ft 398 kts 273°
2026-05-05 12:32 26.95648 63.39939 31828 ft 398 kts 273°
2026-05-05 12:33 26.95667 63.33727 31832 ft 398 kts 274°
2026-05-05 12:33 26.96526 63.27634 31837 ft 395 kts 288°
2026-05-05 12:34 26.98400 63.21872 31834 ft 396 kts 290°
2026-05-05 12:34 27.00328 63.16094 31837 ft 396 kts 290°
2026-05-05 12:35 27.02244 63.10303 31843 ft 396 kts 290°
2026-05-05 12:35 27.03827 63.05483 31849 ft 396 kts 290°
2026-05-05 12:36 27.06035 62.98734 31847 ft 396 kts 290°
2026-05-05 12:36 27.07931 62.92925 31853 ft 396 kts 290°
2026-05-05 12:37 27.09519 62.88054 31852 ft 396 kts 290°
2026-05-05 12:37 27.11397 62.82284 31856 ft 396 kts 290°
2026-05-05 12:38 27.13284 62.76475 31852 ft 396 kts 290°
2026-05-05 12:38 27.15168 62.70667 31859 ft 396 kts 290°
2026-05-05 12:39 27.16882 62.65375 31857 ft 396 kts 290°
2026-05-05 12:39 27.18760 62.59571 31854 ft 395 kts 290°
2026-05-05 12:40 27.20635 62.53763 31854 ft 395 kts 290°
2026-05-05 12:40 27.22510 62.47949 31854 ft 395 kts 290°
2026-05-05 12:41 27.24380 62.42136 31851 ft 395 kts 289°
2026-05-05 12:41 27.26234 62.36369 31849 ft 395 kts 289°
2026-05-05 12:42 27.28097 62.30561 31843 ft 395 kts 289°
2026-05-05 12:42 27.29960 62.24745 31854 ft 396 kts 289°
2026-05-05 12:43 27.31824 62.18914 31852 ft 396 kts 289°
2026-05-05 12:43 27.33690 62.13070 31859 ft 396 kts 289°
2026-05-05 12:44 27.35553 62.07227 31852 ft 397 kts 289°
2026-05-05 12:44 27.37418 62.01366 31858 ft 398 kts 289°
2026-05-05 12:45 27.39280 61.95505 31861 ft 398 kts 289°
2026-05-05 12:45 27.41140 61.89638 31863 ft 398 kts 289°
2026-05-05 12:46 27.42985 61.83811 31868 ft 397 kts 289°
2026-05-05 12:46 27.44836 61.77956 31869 ft 397 kts 289°
2026-05-05 12:47 27.46686 61.72096 31872 ft 396 kts 289°
2026-05-05 12:47 27.48529 61.66245 31874 ft 396 kts 289°
2026-05-05 12:48 27.50369 61.60395 31876 ft 396 kts 289°
2026-05-05 12:48 27.52206 61.54546 31881 ft 396 kts 289°
2026-05-05 12:49 27.54039 61.48698 31883 ft 395 kts 289°
2026-05-05 12:49 27.55855 61.42895 31886 ft 395 kts 289°
2026-05-05 12:50 27.57679 61.37057 31871 ft 394 kts 289°
2026-05-05 12:50 27.59496 61.31234 31886 ft 395 kts 289°
2026-05-05 12:51 27.61315 61.25384 31879 ft 395 kts 289°
2026-05-05 12:51 27.63136 61.19529 31882 ft 396 kts 288°
2026-05-05 12:52 27.64955 61.13673 31879 ft 396 kts 288°
2026-05-05 12:52 27.66765 61.07831 31876 ft 396 kts 288°
2026-05-05 12:53 27.68581 61.01961 31873 ft 397 kts 288°
2026-05-05 12:53 27.70398 60.96077 31868 ft 397 kts 288°
2026-05-05 12:54 27.73112 60.87268 31815 ft 395 kts 288°
2026-05-05 12:55 27.74901 60.81449 31868 ft 395 kts 288°
2026-05-05 12:55 27.76680 60.75577 31860 ft 395 kts 285°
2026-05-05 12:56 27.78089 60.69589 31866 ft 394 kts 283°
2026-05-05 12:56 27.79425 60.63590 31869 ft 393 kts 283°
2026-05-05 12:57 27.80770 60.57586 31858 ft 395 kts 283°
2026-05-05 12:57 27.82127 60.51570 31861 ft 396 kts 284°
2026-05-05 12:58 27.83488 60.45544 31848 ft 395 kts 284°
2026-05-05 12:58 27.84836 60.39572 31853 ft 395 kts 284°
2026-05-05 12:59 27.86190 60.33562 31865 ft 395 kts 283°
2026-05-05 12:59 27.87541 60.27544 31863 ft 395 kts 283°
2026-05-05 13:00 27.89562 60.18525 31850 ft 394 kts 283°
2026-05-05 13:01 27.92246 60.06503 31858 ft 394 kts 283°
2026-05-05 13:01 27.93573 60.00537 31854 ft 394 kts 283°
2026-05-05 13:02 27.94907 59.94526 31849 ft 394 kts 283°
2026-05-05 13:02 27.96239 59.88513 31849 ft 394 kts 283°
2026-05-05 13:03 27.97569 59.82497 31834 ft 394 kts 283°
2026-05-05 13:03 27.98897 59.76477 31826 ft 393 kts 283°
2026-05-05 13:04 28.00218 59.70477 31839 ft 393 kts 283°
2026-05-05 13:04 28.01538 59.64463 31826 ft 394 kts 283°
2026-05-05 13:05 28.02853 59.58457 31819 ft 393 kts 283°
2026-05-05 13:05 28.04164 59.52460 31820 ft 393 kts 283°
2026-05-05 13:06 28.05472 59.46465 31804 ft 392 kts 283°
2026-05-05 13:06 28.06775 59.40485 31816 ft 394 kts 283°
2026-05-05 13:07 28.08083 59.34459 31819 ft 394 kts 283°
2026-05-05 13:07 28.09393 59.28408 31805 ft 396 kts 283°
2026-05-05 13:08 28.10704 59.22346 31801 ft 395 kts 283°
2026-05-05 13:08 28.12007 59.16297 31792 ft 394 kts 282°
2026-05-05 13:09 28.13305 59.10266 31803 ft 394 kts 282°
2026-05-05 13:09 28.14596 59.04242 31795 ft 392 kts 282°
2026-05-05 13:10 28.15874 58.98274 31804 ft 392 kts 282°
2026-05-05 13:10 28.17160 58.92261 31803 ft 392 kts 282°
2026-05-05 13:11 28.18442 58.86247 31802 ft 392 kts 282°
2026-05-05 13:11 28.19721 58.80239 31801 ft 392 kts 282°
2026-05-05 13:12 28.20996 58.74231 31811 ft 392 kts 282°
2026-05-05 13:12 28.22161 58.68729 31826 ft 391 kts 282°
2026-05-05 13:13 28.23418 58.62778 31849 ft 392 kts 282°
2026-05-05 13:13 28.24057 58.59746 31955 ft 397 kts 282°
2026-05-05 13:13 28.24699 58.56697 32251 ft 397 kts 282°
2026-05-05 13:14 28.25338 58.53662 32739 ft 393 kts 282°
2026-05-05 13:14 28.25969 58.50667 33238 ft 389 kts 282°
2026-05-05 13:14 28.26594 58.47689 33561 ft 388 kts 281°
2026-05-05 13:14 28.27218 58.44712 33885 ft 387 kts 281°
2026-05-05 13:15 28.27853 58.41754 34207 ft 386 kts 282°
2026-05-05 13:15 28.28545 58.38809 34455 ft 386 kts 283°
2026-05-05 13:15 28.29262 58.35872 34704 ft 387 kts 283°
2026-05-05 13:15 28.29986 58.32934 35002 ft 385 kts 283°
2026-05-05 13:16 28.30704 58.30012 35299 ft 384 kts 283°
2026-05-05 13:16 28.31416 58.27091 35548 ft 384 kts 283°
2026-05-05 13:16 28.32125 58.24168 35776 ft 382 kts 283°
2026-05-05 13:16 28.32826 58.21263 35823 ft 382 kts 283°
2026-05-05 13:17 28.34215 58.15478 35834 ft 383 kts 283°
2026-05-05 13:17 28.35614 58.09629 35834 ft 385 kts 283°
2026-05-05 13:18 28.37021 58.03739 35830 ft 387 kts 283°
2026-05-05 13:18 28.38428 57.97837 35815 ft 387 kts 283°
2026-05-05 13:19 28.39831 57.91937 35813 ft 387 kts 283°
2026-05-05 13:19 28.41228 57.86053 35808 ft 385 kts 282°
2026-05-05 13:20 28.42618 57.80186 35804 ft 384 kts 282°
2026-05-05 13:20 28.43997 57.74351 35806 ft 381 kts 282°
2026-05-05 13:21 28.45367 57.68542 35813 ft 379 kts 282°
2026-05-05 13:21 28.46718 57.62806 35818 ft 378 kts 282°
2026-05-05 13:22 28.48069 57.57057 35827 ft 376 kts 282°
2026-05-05 13:22 28.49421 57.51287 35840 ft 379 kts 282°
2026-05-05 13:23 28.50787 57.45444 35865 ft 384 kts 282°
2026-05-05 13:23 28.52165 57.39542 35885 ft 388 kts 282°
2026-05-05 13:24 28.53534 57.33663 35888 ft 383 kts 282°
2026-05-05 13:24 28.54879 57.27864 35906 ft 377 kts 282°
2026-05-05 13:25 28.56212 57.22095 35932 ft 377 kts 282°
2026-05-05 13:25 28.57545 57.16313 35941 ft 378 kts 282°
2026-05-05 13:26 28.58652 57.11505 35956 ft 378 kts 282°
2026-05-05 13:26 28.59983 57.05712 35961 ft 378 kts 282°
2026-05-05 13:27 28.61312 56.99922 35973 ft 378 kts 282°
2026-05-05 13:27 28.62641 56.94116 35978 ft 380 kts 282°
2026-05-05 13:28 28.63973 56.88283 35984 ft 381 kts 282°
2026-05-05 13:28 28.65296 56.82477 35986 ft 382 kts 282°
2026-05-05 13:29 28.66630 56.76611 35993 ft 382 kts 282°
2026-05-05 13:29 28.67962 56.70745 35978 ft 382 kts 282°
2026-05-05 13:30 28.69289 56.64888 35981 ft 382 kts 281°
2026-05-05 13:30 28.70610 56.59029 36008 ft 383 kts 281°
2026-05-05 13:31 28.71929 56.53153 35978 ft 382 kts 281°
2026-05-05 13:31 28.73245 56.47282 35986 ft 382 kts 281°
2026-05-05 13:32 28.74555 56.41423 35985 ft 381 kts 281°
2026-05-05 13:32 28.75863 56.35568 35979 ft 380 kts 281°
2026-05-05 13:33 28.77162 56.29733 35982 ft 379 kts 281°
2026-05-05 13:33 28.78457 56.23907 35971 ft 379 kts 281°
2026-05-05 13:34 28.79746 56.18096 35980 ft 378 kts 281°
2026-05-05 13:34 28.81021 56.12322 35968 ft 377 kts 281°
2026-05-05 13:35 28.82300 56.06510 35966 ft 377 kts 281°
2026-05-05 13:35 28.83575 56.00703 35973 ft 377 kts 281°
2026-05-05 13:36 28.84847 55.94900 35957 ft 377 kts 281°
2026-05-05 13:36 28.86118 55.89091 35958 ft 378 kts 281°
2026-05-05 13:37 28.87388 55.83274 35961 ft 378 kts 281°
2026-05-05 13:37 28.88658 55.77454 35965 ft 378 kts 281°
2026-05-05 13:38 28.89916 55.71673 35958 ft 378 kts 280°
2026-05-05 13:38 28.91183 55.65837 35955 ft 379 kts 280°
2026-05-05 13:39 28.92448 55.60000 35946 ft 379 kts 280°
2026-05-05 13:39 28.93709 55.54168 35959 ft 378 kts 280°
2026-05-05 13:40 28.94968 55.48329 35965 ft 378 kts 280°
2026-05-05 13:40 28.96225 55.42487 35956 ft 379 kts 280°
2026-05-05 13:41 28.97482 55.36633 35956 ft 380 kts 280°
2026-05-05 13:41 28.98726 55.30816 35945 ft 380 kts 280°
2026-05-05 13:42 28.99975 55.24953 35959 ft 379 kts 280°
2026-05-05 13:42 29.01218 55.19102 35948 ft 379 kts 280°
2026-05-05 13:43 29.02461 55.13241 35954 ft 379 kts 280°
2026-05-05 13:43 29.03700 55.07388 35951 ft 379 kts 279°
2026-05-05 13:44 29.04934 55.01543 35953 ft 378 kts 279°
2026-05-05 13:44 29.06164 54.95705 35954 ft 377 kts 279°
2026-05-05 13:45 29.07389 54.89878 35962 ft 377 kts 279°
2026-05-05 13:45 29.08603 54.84089 35958 ft 376 kts 279°
2026-05-05 13:46 29.09818 54.78279 35966 ft 375 kts 279°
2026-05-05 13:46 29.11030 54.72476 35965 ft 375 kts 279°
2026-05-05 13:47 29.12231 54.66706 35969 ft 374 kts 279°
2026-05-05 13:47 29.13435 54.60913 35968 ft 374 kts 279°
2026-05-05 13:48 29.14636 54.55141 35974 ft 371 kts 280°
2026-05-05 13:48 29.15828 54.49403 35953 ft 371 kts 279°
2026-05-05 13:49 29.17006 54.43664 35935 ft 370 kts 279°
2026-05-05 13:49 29.18188 54.37908 35978 ft 373 kts 279°
2026-05-05 13:50 29.19373 54.32128 35968 ft 376 kts 279°
2026-05-05 13:50 29.20572 54.26277 35956 ft 379 kts 279°
2026-05-05 13:51 29.21776 54.20391 35950 ft 380 kts 279°
2026-05-05 13:51 29.22980 54.14487 35944 ft 381 kts 279°
2026-05-05 13:52 29.24181 54.08587 35941 ft 380 kts 279°
2026-05-05 13:52 29.25380 54.02683 35933 ft 379 kts 279°
2026-05-05 13:53 29.26563 53.96840 35932 ft 378 kts 279°
2026-05-05 13:53 29.27749 53.90970 35929 ft 377 kts 279°
2026-05-05 13:54 29.28934 53.85124 35924 ft 376 kts 279°
2026-05-05 13:54 29.30117 53.79322 35917 ft 372 kts 278°
2026-05-05 13:55 29.31290 53.73560 35906 ft 372 kts 278°
2026-05-05 13:55 29.32464 53.67764 35893 ft 373 kts 278°
2026-05-05 13:56 29.33633 53.61984 35901 ft 376 kts 278°
2026-05-05 13:56 29.34814 53.56127 35890 ft 377 kts 278°
2026-05-05 13:57 29.35996 53.50255 35897 ft 378 kts 278°
2026-05-05 13:57 29.37177 53.44369 35894 ft 379 kts 278°
2026-05-05 13:58 29.38358 53.38473 35872 ft 379 kts 278°
2026-05-05 13:58 29.39534 53.32591 35882 ft 378 kts 278°
2026-05-05 13:59 29.41280 53.23824 35877 ft 377 kts 278°
2026-05-05 14:00 29.42828 53.16027 35880 ft 376 kts 278°
2026-05-05 14:00 29.44178 53.09201 35881 ft 375 kts 278°
2026-05-05 14:01 29.45330 53.03364 35880 ft 374 kts 278°
2026-05-05 14:01 29.46476 52.97542 35911 ft 373 kts 278°
2026-05-05 14:02 29.47618 52.91728 35970 ft 373 kts 278°
2026-05-05 14:02 29.48749 52.85955 36025 ft 373 kts 278°
2026-05-05 14:03 29.49884 52.80146 36057 ft 372 kts 278°
2026-05-05 14:03 29.51015 52.74344 36076 ft 372 kts 278°
2026-05-05 14:04 29.52144 52.68540 36085 ft 372 kts 278°
2026-05-05 14:04 29.53270 52.62738 36084 ft 372 kts 277°
2026-05-05 14:05 29.53737 52.56886 36092 ft 366 kts 266°
2026-05-05 14:05 29.53186 52.51124 36094 ft 365 kts 261°
2026-05-05 14:06 29.52507 52.45323 36098 ft 366 kts 261°
2026-05-05 14:06 29.51834 52.39524 36084 ft 366 kts 261°
2026-05-05 14:07 29.51167 52.33714 36045 ft 367 kts 261°
2026-05-05 14:07 29.50502 52.27899 36015 ft 367 kts 261°
2026-05-05 14:08 29.49835 52.22085 35998 ft 368 kts 261°
2026-05-05 14:08 29.49168 52.16288 35949 ft 368 kts 261°
2026-05-05 14:09 29.48488 52.10420 35930 ft 372 kts 261°
2026-05-05 14:09 29.47812 52.04570 35921 ft 368 kts 261°
2026-05-05 14:10 29.47136 51.98764 35932 ft 366 kts 261°
2026-05-05 14:10 29.46458 51.92978 35903 ft 365 kts 261°
2026-05-05 14:11 29.45839 51.87709 35894 ft 363 kts 261°
2026-05-05 14:11 29.45167 51.82004 35887 ft 361 kts 261°
2026-05-05 14:12 29.44494 51.76301 35867 ft 360 kts 261°
2026-05-05 14:12 29.43819 51.70612 35864 ft 360 kts 261°
2026-05-05 14:13 29.43136 51.64918 35850 ft 360 kts 261°
2026-05-05 14:13 29.42451 51.59235 35864 ft 359 kts 261°
2026-05-05 14:14 29.41879 51.54503 35841 ft 361 kts 261°
2026-05-05 14:14 29.41191 51.48812 35826 ft 360 kts 260°
2026-05-05 14:15 29.40497 51.43111 35814 ft 362 kts 260°
2026-05-05 14:15 29.39802 51.37412 35810 ft 363 kts 260°
2026-05-05 14:16 29.39096 51.31645 35807 ft 366 kts 260°
2026-05-05 14:16 29.38383 51.25851 35782 ft 367 kts 260°
2026-05-05 14:17 29.37663 51.20040 35774 ft 368 kts 260°
2026-05-05 14:17 29.36942 51.14255 35771 ft 368 kts 260°
2026-05-05 14:18 29.36216 51.08446 35758 ft 368 kts 260°
2026-05-05 14:18 29.35489 51.02643 35752 ft 367 kts 260°
2026-05-05 14:19 29.34760 50.96848 35747 ft 366 kts 260°
2026-05-05 14:19 29.34036 50.91107 35746 ft 366 kts 260°
2026-05-05 14:20 29.33306 50.85341 35743 ft 365 kts 260°
2026-05-05 14:20 29.32575 50.79591 35745 ft 364 kts 260°
2026-05-05 14:21 29.31842 50.73843 35745 ft 364 kts 259°
2026-05-05 14:21 29.31106 50.68098 35586 ft 368 kts 259°
2026-05-05 14:22 29.30729 50.65162 35208 ft 373 kts 260°
2026-05-05 14:22 29.30351 50.62225 34851 ft 372 kts 260°
2026-05-05 14:22 29.29975 50.59300 34504 ft 371 kts 260°
2026-05-05 14:22 29.29598 50.56373 34165 ft 372 kts 260°
2026-05-05 14:23 29.29218 50.53436 33828 ft 374 kts 260°
2026-05-05 14:23 29.28841 50.50520 33453 ft 375 kts 260°
2026-05-05 14:23 29.28456 50.47555 33078 ft 377 kts 260°
2026-05-05 14:23 29.28069 50.44573 32681 ft 379 kts 260°
2026-05-05 14:24 29.27679 50.41575 32305 ft 382 kts 260°
2026-05-05 14:24 29.27286 50.38557 31936 ft 385 kts 260°
2026-05-05 14:24 29.26889 50.35514 31570 ft 388 kts 260°
2026-05-05 14:24 29.26484 50.32436 31205 ft 392 kts 259°
2026-05-05 14:25 29.25910 50.29373 30850 ft 395 kts 255°
2026-05-05 14:25 29.25211 50.26310 30497 ft 399 kts 255°
2026-05-05 14:25 29.24489 50.23220 30151 ft 402 kts 255°
2026-05-05 14:25 29.23772 50.20155 29790 ft 395 kts 255°
2026-05-05 14:26 29.23070 50.17138 29376 ft 389 kts 255°
2026-05-05 14:26 29.22391 50.14199 28969 ft 385 kts 255°
2026-05-05 14:26 29.21710 50.11240 28574 ft 384 kts 255°
2026-05-05 14:26 29.21030 50.08286 28179 ft 382 kts 255°
2026-05-05 14:27 29.20355 50.05349 27795 ft 381 kts 255°
2026-05-05 14:27 29.19681 50.02417 27410 ft 380 kts 255°
2026-05-05 14:27 29.19008 49.99496 27033 ft 379 kts 255°
2026-05-05 14:27 29.18337 49.96584 26662 ft 378 kts 255°
2026-05-05 14:28 29.17666 49.93676 26289 ft 377 kts 255°
2026-05-05 14:28 29.16997 49.90782 25927 ft 376 kts 255°
2026-05-05 14:28 29.16329 49.87899 25565 ft 374 kts 254°
2026-05-05 14:28 29.15662 49.85024 25217 ft 373 kts 254°
2026-05-05 14:29 29.14997 49.82162 24868 ft 371 kts 254°
2026-05-05 14:29 29.14336 49.79317 24524 ft 369 kts 254°
2026-05-05 14:29 29.13677 49.76485 24179 ft 368 kts 254°
2026-05-05 14:29 29.13020 49.73663 23847 ft 366 kts 254°
2026-05-05 14:30 29.12375 49.70894 23514 ft 365 kts 254°
2026-05-05 14:30 29.11723 49.68097 23157 ft 363 kts 254°
2026-05-05 14:30 29.11073 49.65312 22761 ft 361 kts 254°
2026-05-05 14:30 29.10422 49.62526 22370 ft 360 kts 254°
2026-05-05 14:31 29.09777 49.59769 21983 ft 358 kts 254°
2026-05-05 14:31 29.09134 49.57025 21602 ft 356 kts 254°
2026-05-05 14:31 29.08640 49.54260 21222 ft 355 kts 262°
2026-05-05 14:31 29.08492 49.51457 20839 ft 351 kts 269°
2026-05-05 14:32 29.08697 49.48695 20478 ft 347 kts 274°
2026-05-05 14:32 29.08998 49.46014 20120 ft 342 kts 275°
2026-05-05 14:32 29.09310 49.43338 19757 ft 337 kts 275°
2026-05-05 14:32 29.09617 49.40700 19404 ft 333 kts 275°
2026-05-05 14:33 29.09916 49.38092 19053 ft 329 kts 275°
2026-05-05 14:33 29.10207 49.35515 18705 ft 325 kts 275°
2026-05-05 14:33 29.10492 49.32966 18366 ft 322 kts 275°
2026-05-05 14:33 29.10771 49.30439 18022 ft 318 kts 275°
2026-05-05 14:34 29.11046 49.27939 17637 ft 316 kts 275°
2026-05-05 14:34 29.11318 49.25460 17252 ft 313 kts 275°
2026-05-05 14:34 29.11587 49.23001 16870 ft 311 kts 274°
2026-05-05 14:34 29.11854 49.20559 16494 ft 308 kts 274°
2026-05-05 14:35 29.12118 49.18134 16111 ft 306 kts 274°
2026-05-05 14:35 29.12380 49.15727 15757 ft 304 kts 274°
2026-05-05 14:35 29.12640 49.13330 15395 ft 303 kts 274°
2026-05-05 14:35 29.12898 49.10949 15033 ft 301 kts 274°
2026-05-05 14:36 29.13154 49.08584 14771 ft 296 kts 274°
2026-05-05 14:36 29.13404 49.06267 14740 ft 292 kts 274°
2026-05-05 14:36 29.13652 49.03973 14732 ft 289 kts 274°
2026-05-05 14:36 29.13894 49.01720 14718 ft 290 kts 274°
2026-05-05 14:37 29.14142 48.99405 14430 ft 294 kts 274°
2026-05-05 14:37 29.14391 48.97086 14204 ft 293 kts 274°
2026-05-05 14:37 29.14638 48.94776 13970 ft 291 kts 274°
2026-05-05 14:37 29.14883 48.92499 13736 ft 286 kts 274°
2026-05-05 14:38 29.15340 48.90292 13476 ft 287 kts 287°
2026-05-05 14:38 29.16113 48.88199 13181 ft 285 kts 289°
2026-05-05 14:38 29.16919 48.86134 12876 ft 283 kts 289°
2026-05-05 14:38 29.17720 48.84090 12575 ft 280 kts 289°
2026-05-05 14:39 29.18509 48.82061 12278 ft 278 kts 289°
2026-05-05 14:39 29.19289 48.80040 11978 ft 277 kts 289°
2026-05-05 14:39 29.20058 48.78030 11693 ft 275 kts 289°
2026-05-05 14:39 29.20821 48.76029 11405 ft 273 kts 289°
2026-05-05 14:40 29.21576 48.74042 11121 ft 272 kts 289°
2026-05-05 14:40 29.22326 48.72064 10834 ft 270 kts 289°
2026-05-05 14:40 29.23071 48.70095 10554 ft 269 kts 289°
2026-05-05 14:40 29.23805 48.68155 10276 ft 268 kts 289°
2026-05-05 14:41 29.24541 48.66204 9994 ft 266 kts 288°
2026-05-05 14:41 29.25275 48.64261 9727 ft 265 kts 288°
2026-05-05 14:41 29.26005 48.62324 9441 ft 264 kts 288°
2026-05-05 14:41 29.26733 48.60392 9144 ft 263 kts 288°
2026-05-05 14:42 29.27458 48.58468 8845 ft 262 kts 288°
2026-05-05 14:42 29.28180 48.56552 8550 ft 262 kts 288°
2026-05-05 14:42 29.28899 48.54641 8261 ft 261 kts 288°
2026-05-05 14:42 29.29614 48.52741 8045 ft 257 kts 289°
2026-05-05 14:43 29.30321 48.50863 8011 ft 257 kts 288°
2026-05-05 14:43 29.31027 48.48982 8004 ft 257 kts 288°
2026-05-05 14:43 29.31735 48.47094 7868 ft 260 kts 289°
2026-05-05 14:43 29.32451 48.45188 7750 ft 260 kts 288°
2026-05-05 14:44 29.33166 48.43283 7627 ft 260 kts 289°
2026-05-05 14:44 29.33878 48.41386 7512 ft 257 kts 288°
2026-05-05 14:44 29.34526 48.39493 7379 ft 253 kts 284°
2026-05-05 14:44 29.35058 48.37605 7267 ft 252 kts 283°
2026-05-05 14:45 29.35573 48.35689 7150 ft 252 kts 283°
2026-05-05 14:45 29.36089 48.33770 7036 ft 252 kts 283°
2026-05-05 14:45 29.36607 48.31851 6899 ft 253 kts 283°
2026-05-05 14:45 29.37131 48.29921 6764 ft 254 kts 283°
2026-05-05 14:46 29.37660 48.27984 6623 ft 255 kts 283°
2026-05-05 14:46 29.38191 48.26044 6491 ft 255 kts 283°
2026-05-05 14:46 29.38718 48.24122 6343 ft 250 kts 283°
2026-05-05 14:46 29.39234 48.22245 6201 ft 244 kts 283°
2026-05-05 14:47 29.39738 48.20411 6051 ft 238 kts 283°
2026-05-05 14:47 29.40233 48.18607 5832 ft 237 kts 283°
2026-05-05 14:47 29.40726 48.16806 5589 ft 236 kts 283°
2026-05-05 14:47 29.41217 48.15012 5355 ft 235 kts 283°
2026-05-05 14:48 29.41707 48.13224 5115 ft 235 kts 283°
2026-05-05 14:48 29.42191 48.11458 4877 ft 234 kts 283°
2026-05-05 14:48 29.42678 48.09680 4645 ft 233 kts 284°
2026-05-05 14:48 29.43162 48.07910 4406 ft 232 kts 283°
2026-05-05 14:49 29.43641 48.06142 4172 ft 231 kts 280°
2026-05-05 14:49 29.43647 48.04349 3914 ft 224 kts 251°
2026-05-05 14:49 29.43110 48.02678 3701 ft 225 kts 243°
2026-05-05 14:49 29.42474 48.01043 3466 ft 223 kts 242°
2026-05-05 14:50 29.41837 47.99417 3234 ft 223 kts 242°
2026-05-05 14:50 29.41211 47.97795 2997 ft 222 kts 242°
2026-05-05 14:50 29.40590 47.96169 2758 ft 222 kts 242°
2026-05-05 14:50 29.39981 47.94568 2536 ft 221 kts 242°
2026-05-05 14:51 29.39369 47.92951 2437 ft 214 kts 242°
2026-05-05 14:51 29.38799 47.91443 2406 ft 201 kts 238°
2026-05-05 14:51 29.37951 47.90326 2396 ft 178 kts 205°
2026-05-05 14:51 29.36751 47.89881 2220 ft 184 kts 181°
2026-05-05 14:52 29.35517 47.90095 2045 ft 178 kts 159°
2026-05-05 14:52 29.34392 47.90650 1859 ft 174 kts 155°
2026-05-05 14:52 29.33305 47.91226 1657 ft 169 kts 155°
2026-05-05 14:52 29.32263 47.91778 1539 ft 160 kts 155°
2026-05-05 14:53 29.31270 47.92299 1498 ft 153 kts 155°
2026-05-05 14:53 29.30301 47.92814 1436 ft 157 kts 154°
2026-05-05 14:53 29.29323 47.93337 1238 ft 150 kts 154°
2026-05-05 14:53 29.28405 47.93828 1094 ft 142 kts 156°
2026-05-05 14:54 29.27511 47.94304 898 ft 142 kts 153°
2026-05-05 14:54 29.26603 47.94790 729 ft 144 kts 153°
2026-05-05 14:54 29.25686 47.95291 518 ft 147 kts 150°
2026-05-05 14:54 29.24770 47.95781 331 ft 145 kts 152°
2026-05-05 14:55 29.23866 47.96253 199 ft 140 kts 152°
2026-05-05 14:55 29.23064 47.96680 161 ft 85 kts 156°
2026-05-05 14:55 29.22783 47.96828 160 ft 36 kts 154°
2026-05-05 14:55 29.22562 47.96947 161 ft 34 kts 155°
2026-05-05 14:56 29.22358 47.97054 163 ft 30 kts 155°
2026-05-05 14:56 29.22170 47.97155 163 ft 30 kts 155°
2026-05-05 14:56 29.22015 47.97252 164 ft 21 kts 139°
2026-05-05 14:56 29.21946 47.97383 162 ft 19 kts 111°
2026-05-05 14:57 29.21936 47.97411 163 ft 0 kts 111°
2026-05-05 14:57 29.21925 47.97453 163 ft 15 kts 92°
2026-05-05 14:58 29.22005 47.97489 164 ft 15 kts 335°
2026-05-05 14:58 29.22104 47.97436 164 ft 18 kts 335°
2026-05-05 14:58 29.22235 47.97366 165 ft 24 kts 335°
2026-05-05 14:58 29.22401 47.97279 165 ft 26 kts 335°
2026-05-05 14:59 29.22562 47.97193 165 ft 25 kts 334°
2026-05-05 14:59 29.22712 47.97113 165 ft 23 kts 335°
2026-05-05 14:59 29.22856 47.97036 166 ft 22 kts 335°
2026-05-05 14:59 29.22995 47.96963 167 ft 22 kts 335°
2026-05-05 15:00 29.23130 47.96892 166 ft 21 kts 335°
2026-05-05 15:00 29.23218 47.96846 166 ft 21 kts 335°
2026-05-05 15:00 29.23347 47.96776 167 ft 8 kts 334°
2026-05-05 15:00 29.23373 47.96765 167 ft 2 kts
2026-05-05 15:01 29.23400 47.96806 167 ft 13 kts 63°
2026-05-05 15:01 29.23458 47.96948 168 ft 25 kts 64°
2026-05-05 15:01 29.23512 47.97089 169 ft 14 kts 67°
2026-05-05 15:01 29.23566 47.97187 169 ft 15 kts 25°
2026-05-05 15:02 29.23653 47.97171 169 ft 13 kts 11°
2026-05-05 15:02 29.23721 47.97207 169 ft 6 kts 26°
2026-05-05 15:02 29.23724 47.97209 169 ft 0 kts 26°